Flag for U.S.A. Weather past 2 weeks in Oakland, California, U.S.A.

Now
61 °F

Partly cloudy.


Feels Like: 61 °F
Forecast: 61 / 77 °F
Wind: 8 mph from Northwest

Location: Metro Oakland International Airport

Current Time: Jul 29, 2014 at 4:06:58 AM

Latest Report: Jul 29, 2014 at 2:53 AM


Visibility: 10 mi

Pressure: 30.05 "Hg

Humidity: 83%

Dew point: 56 °F

Location of OaklandLocation

Historic Weather in Oakland — Graph

°F

Oakland temperature yesterday

Maximum temperature yesterday: 71 °F (at 12:53 PM)
Minimum temperature yesterday: 61 °F (at 12:53 AM)
Average temperature yesterday: 65 °F

Past Weeks' High & Low Weather Summary

 TemperatureHumidityPressure
High90 °F (Jul 25, 1:53 PM)90% (Jul 16, 1:53 AM)30.15 "Hg (Jul 16, 1:53 AM)
Low57 °F (Jul 14, 4:53 AM)23% (Jul 25, 12:53 PM)29.83 "Hg (Jul 25, 3:53 AM)
Average67 °F71%29.98 "Hg
* Reported Jul 14 2:53 AM — Jul 29 2:53 AM, Oakland, Weather by CustomWeather, © 2014

Note: Actual official high and low records may vary slightly from our data, if they occured in-between our weather recording intervals... More about our weather records

Advertising

Oakland weather history for previous 24 hours

 ConditionsComfort  
Time TempWeatherWind HumidityBarometerVisibility
2:53 AM
Jul 29
61 °FPartly cloudy.8 mph83%30.05 "Hg10 mi
1:53 AM62 °FPassing clouds.8 mph80%30.03 "Hg10 mi
12:53 AM62 °FOvercast.8 mph80%30.05 "Hg10 mi
11:53 PM
Jul 28
62 °FPassing clouds.9 mph80%30.05 "Hg10 mi
10:53 PM63 °FPassing clouds.7 mph75%30.05 "Hg10 mi
9:53 PM63 °FPassing clouds.8 mph75%30.05 "Hg10 mi
8:53 PM63 °FScattered clouds.6 mph75%30.03 "Hg10 mi
7:53 PM65 °FBroken clouds.14 mph70%30.02 "Hg10 mi
6:53 PM66 °FBroken clouds.16 mph68%30.02 "Hg10 mi
5:53 PM68 °FBroken clouds.20 mph65%30.02 "Hg10 mi
4:53 PM69 °FBroken clouds.14 mph66%30.03 "Hg10 mi
3:53 PM68 °FPartly sunny.20 mph65%30.03 "Hg10 mi
2:53 PM70 °FPartly sunny.15 mph64%30.05 "Hg10 mi
1:53 PM71 °FPartly sunny.17 mph59%30.05 "Hg10 mi
12:53 PM71 °FPartly sunny.15 mph59%30.05 "Hg10 mi
11:53 AM69 °FPartly sunny.10 mph66%30.06 "Hg10 mi
10:53 AM68 °FPartly sunny.8 mph68%30.06 "Hg10 mi
9:53 AM65 °FPartly sunny.7 mph76%30.06 "Hg10 mi
8:53 AM63 °FLow clouds.5 mph81%30.05 "Hg10 mi
7:53 AM63 °FLow clouds.6 mph81%30.03 "Hg10 mi
6:53 AM62 °FLow clouds.5 mph80%30.01 "Hg10 mi
5:53 AM62 °FLow clouds.5 mph80%30.00 "Hg10 mi
4:53 AM62 °FOvercast.7 mph80%30.00 "Hg10 mi
Weather by CustomWeather, © 2014

See weather overviewHow to use our weather pages